Weather History for KVUO - November, 2013

Change the Weather History Date:

Wednesday, November 6, 2013

  Actual Average Record
Temperature  
Mean Temperature 51 °F 49 °F  
Max Temperature 53 °F 56 °F 67 °F (1997)
Min Temperature 49 °F 41 °F 22 °F (1895)
Degree Days  
Heating Degree Days 14    
Month to date heating degree days 93  
Since 1 July heating degree days 587  
Cooling Degree Days 0    
Month to date cooling degree days 0  
Year to date cooling degree days 450  
Moisture  
Dew Point 49 °F    
Average Humidity 93    
Maximum Humidity 100    
Minimum Humidity 86    
Precipitation  
Precipitation 0.15 in 0.19 in 2.90 in (2006)
Month to date precipitation 1.27 1.02  
Year to date precipitation 23.46 27.48  
Snow  
Snow 0.00 in - - ()
Snow Depth 0.00 in    
Sea Level Pressure  
Sea Level Pressure 30.24 in    
Wind  
Wind Speed 1 mph (SE)    
Max Wind Speed 9 mph    
Max Gust Speed 12 mph    
Visibility 8 miles    
Events Rain    
T = Trace of Precipitation, MM = Missing Value Source: NWS Daily Summary

Daily Weather History Graph

Daily Weather History Graph

Search for Another Location

Airport or City:

Trip Planner

Search our weather history database for the weather conditions in past years. The results will help you decide how hot, cold, wet, or windy it might be!

Date:

Astronomy

Nov. 06, 2013 Rise Set
Actual Time 6:57 AM PST 4:50 PM PST
Civil Twilight 6:26 AM PST 5:21 PM PST
Nautical Twilight 5:51 AM PST 5:56 PM PST
Astronomical Twilight 5:16 AM PST 6:31 PM PST
Moon 10:22 AM PST (11/6) 7:56 PM PST (11/6)
Length of Visible Light 10h 55m
Length of Day
9h 52m
Waxing Crescent, 14% of the Moon is Illuminated
Nov 6
Waxing Crescent
Nov 9
First Quarter
Nov 17
Full
Nov 25
Last Quarter
Dec 2
New

Hourly Weather History & Observations

Time (PST) Temp. Dew Point Humidity Pressure Visibility Wind Dir Wind Speed Gust Speed Precip Events Conditions
12:53 AM 50.0 °F 48.0 °F 93% 30.26 in 10.0 mi Calm Calm - 0.00 in   Overcast
1:53 AM 48.9 °F 48.0 °F 97% 30.27 in 9.0 mi Calm Calm - N/A   Overcast
2:53 AM 50.0 °F 48.0 °F 93% 30.27 in 9.0 mi Calm Calm - N/A   Overcast
3:53 AM 48.9 °F 48.0 °F 97% 30.26 in 8.0 mi Calm Calm - N/A   Overcast
4:53 AM 50.0 °F 46.9 °F 89% 30.27 in 10.0 mi Calm Calm - 0.01 in Rain Light Rain
5:53 AM 48.9 °F 46.9 °F 93% 30.27 in 9.0 mi Calm Calm - 0.00 in   Overcast
6:53 AM 48.9 °F 46.9 °F 93% 30.28 in 9.0 mi Calm Calm - N/A   Overcast
7:53 AM 50.0 °F 46.9 °F 89% 30.29 in 10.0 mi Calm Calm - N/A   Overcast
8:43 AM 50.0 °F 46.9 °F 89% 30.30 in 10.0 mi Calm Calm - N/A   Overcast
8:53 AM 50.0 °F 46.9 °F 89% 30.30 in 10.0 mi Calm Calm - N/A   Overcast
9:15 AM 50.0 °F 48.0 °F 93% 30.31 in 10.0 mi West 5.8 mph - N/A   Overcast
9:43 AM 50.0 °F 48.0 °F 93% 30.30 in 8.0 mi Calm Calm - 0.00 in Rain Light Rain
9:53 AM 50.0 °F 48.0 °F 93% 30.30 in 10.0 mi Calm Calm - 0.00 in Rain Light Rain
10:05 AM 51.1 °F 48.0 °F 89% 30.30 in 9.0 mi Calm Calm - 0.00 in Rain Light Rain
10:53 AM 51.1 °F 48.0 °F 89% 30.30 in 10.0 mi Calm Calm - 0.01 in   Overcast
11:04 AM 51.1 °F 48.0 °F 89% 30.30 in 9.0 mi Calm Calm - N/A   Overcast
11:29 AM 51.1 °F 48.0 °F 89% 30.30 in 9.0 mi Calm Calm - 0.01 in   Overcast
11:49 AM 51.8 °F 48.2 °F 88% 30.28 in 8.0 mi Calm Calm - 0.01 in   Overcast
11:53 AM 52.0 °F 48.0 °F 86% 30.28 in 8.0 mi Calm Calm - 0.01 in   Overcast
12:29 PM 53.1 °F 48.9 °F 86% 30.27 in 8.0 mi Calm Calm - N/A   Overcast
12:53 PM 53.1 °F 50.0 °F 89% 30.26 in 9.0 mi ESE 6.9 mph - 0.00 in Rain Light Rain
1:11 PM 53.1 °F 50.0 °F 89% 30.26 in 10.0 mi SE 5.8 mph - 0.00 in Rain Light Rain
1:45 PM 53.1 °F 50.0 °F 89% 30.25 in 9.0 mi East 5.8 mph - 0.01 in Rain Light Rain
1:53 PM 53.1 °F 51.1 °F 93% 30.25 in 7.0 mi East 4.6 mph - 0.01 in Rain Light Rain
2:24 PM 53.1 °F 51.1 °F 93% 30.24 in 6.0 mi ESE 3.5 mph - 0.00 in Rain Light Rain
2:38 PM 53.1 °F 51.1 °F 93% 30.23 in 8.0 mi SE 4.6 mph - 0.01 in Rain Light Rain
2:53 PM 53.1 °F 51.1 °F 93% 30.23 in 6.0 mi ESE 4.6 mph - 0.01 in Rain Light Rain
3:01 PM 53.1 °F 51.1 °F 93% 30.23 in 5.0 mi SE 4.6 mph - 0.00 in Rain Light Rain
3:18 PM 52.0 °F 51.1 °F 97% 30.23 in 5.0 mi SE 4.6 mph - 0.00 in Rain Light Rain
3:33 PM 52.0 °F 51.1 °F 97% 30.22 in 4.0 mi ESE 3.5 mph - 0.01 in Rain Light Rain
3:49 PM 51.8 °F 51.8 °F 100% 30.22 in 6.0 mi ESE 3.5 mph - 0.02 in Rain Light Rain
3:53 PM 52.0 °F 51.1 °F 97% 30.22 in 6.0 mi ESE 3.5 mph - 0.02 in Rain Light Rain
4:53 PM 52.0 °F 50.0 °F 93% 30.20 in 9.0 mi Calm Calm - 0.05 in Rain Light Rain
5:53 PM 52.0 °F 50.0 °F 93% 30.18 in 7.0 mi ESE 4.6 mph - 0.03 in Rain Light Rain
6:53 PM 51.1 °F 48.9 °F 92% 30.17 in 9.0 mi SE 3.5 mph - 0.03 in Rain Light Rain
7:53 PM 51.1 °F 48.9 °F 92% 30.16 in 9.0 mi SE 4.6 mph - 0.01 in Rain Light Rain
8:53 PM 51.1 °F 48.9 °F 92% 30.16 in 8.0 mi SE 4.6 mph - 0.03 in Rain Light Rain
9:41 PM 51.1 °F 48.9 °F 92% 30.15 in 7.0 mi SE 4.6 mph - 0.05 in Rain Light Rain
9:53 PM 51.1 °F 48.0 °F 89% 30.15 in 7.0 mi SE 6.9 mph - 0.06 in Rain Light Rain
10:00 PM 50.0 °F 48.0 °F 93% 30.14 in 6.0 mi SE 5.8 mph - 0.01 in Rain Light Rain
10:33 PM 50.0 °F 48.0 °F 93% 30.13 in 10.0 mi SSE 6.9 mph - 0.03 in Rain Light Rain
10:40 PM 50.0 °F 48.0 °F 93% 30.13 in 10.0 mi SSE 4.6 mph - 0.03 in   Overcast
10:53 PM 50.0 °F 48.0 °F 93% 30.12 in 10.0 mi SE 6.9 mph - 0.03 in Rain Light Rain
11:53 PM 50.0 °F 46.9 °F 89% 30.10 in 10.0 mi SE 5.8 mph - 0.01 in   Overcast